1487221200.83,13970,12.19,74680.3,-5.13,-34.83,-35.13,0,*53
1487221202.07,13971,12.19,74682.5,-5.13,-34.59,-34.83,0,*5D
1487221203.3,13972,12.19,74680.5,-5.13,-34.41,-34.65,0,*5F
1487221204.54,13973,12.19,74682.5,-5.13,-34.35,-34.59,0,*52
1487221205.75,13974,12.19,74680.5,-5.17,-34.25,-34.47,0,*5F
1487221206.96,13975,12.19,74680.3,-5.13,-34.59,-34.77,0,*52
1487221208.2,13976,12.19,74678.8,-5.13,-34.77,-34.95,0,*51
1487221209.44,13977,12.19,74680.3,-5.13,-34.83,-35.01,0,*57
1487221210.71,13978,12.19,74682.8,-5.13,-34.65,-34.95,0,*5C
1487221211.95,13979,12.19,74680.8,-5.13,-34.59,-34.95,0,*52
1487221213.18,13980,12.19,74682.5,-5.13,-34.59,-34.83,0,*53
1487221214.42,13981,12.19,74680.0,-5.17,-34.65,-34.89,0,*53
1487221215.65,13982,12.19,74682.5,-5.13,-34.35,-34.59,0,*5C
1487221216.86,13983,12.19,74682.3,-5.13,-34.41,-34.77,0,*52
1487221218.09,13984,12.19,74680.0,-5.13,-34.35,-34.59,0,*5A
1487221219.33,13985,12.19,74684.0,-5.17,-34.65,-35.01,0,*56
1487221220.56,13986,12.19,74680.5,-5.13,-34.41,-34.83,0,*5C
1487221221.8,13987,12.19,74680.3,-5.13,-34.25,-34.53,0,*52
1487221223.03,13988,12.19,74680.3,-5.13,-34.35,-34.59,0,*56
1487221224.26,13989,12.19,74680.8,-5.13,-34.41,-34.53,0,*5E
1487221225.49,13990,12.19,74680.5,-5.13,-34.35,-34.41,0,*56
1487221226.72,13991,12.19,74680.5,-5.13,-34.35,-34.59,0,*5E
1487221227.99,13992,12.19,74686.0,-5.13,-34.65,-34.95,0,*58
1487221229.22,13993,12.19,74680.8,-5.17,-34.83,-35.17,0,*5E
1487221230.46,13994,12.19,74680.5,-5.17,-34.59,-34.83,0,*52
1487221231.66,13995,12.19,74680.8,-5.13,-34.41,-34.77,0,*55
1487221232.88,13996,12.19,74682.5,-5.11,-34.25,-34.41,0,*53
1487221234.14,13997,12.19,74682.8,-5.11,-34.35,-34.59,0,*5A
1487221235.37,13998,12.19,74682.8,-5.13,-34.19,-34.41,0,*50
1487221236.57,13999,12.19,74678.3,-5.13,-34.41,-34.77,0,*59
1487221237.83,14000,12.19,74680.3,-5.13,-34.53,-34.83,0,*5F
1487221239.07,14001,12.13,74676.8,-5.13,-34.41,-34.65,0,*55
1487221240.31,14002,12.19,74680.5,-5.13,-34.41,-34.65,0,*56
1487221241.54,14003,12.19,74680.8,-5.13,-34.35,-34.59,0,*5B
1487221242.75,14004,12.19,74682.8,-5.13,-34.41,-34.77,0,*53
1487221243.96,14005,12.19,74682.5,-5.13,-34.77,-35.01,0,*57
1487221245.2,14006,12.19,74680.8,-5.11,-34.59,-35.01,0,*5A
1487221246.44,14007,12.19,74680.5,-5.13,-34.59,-34.83,0,*52
1487221247.68,14008,12.19,74680.0,-5.13,-34.59,-34.95,0,*5A
1487221248.89,14009,12.19,74680.8,-5.13,-34.41,-34.59,0,*52
1487221250.12,14010,12.19,74678.5,-5.17,-34.41,-34.65,0,*51
1487221251.39,14011,12.19,74682.0,-5.13,-34.35,-34.65,0,*57
1487221252.65,14012,12.19,74680.8,-5.11,-34.53,-34.77,0,*55
1487221253.88,14013,12.19,74680.8,-5.13,-34.35,-34.59,0,*5A
1487221255.11,14014,12.19,74682.3,-5.13,-34.25,-34.35,0,*56
1487221256.3,14015,12.19,74680.8,-5.13,-34.25,-34.41,0,*54
1487221257.51,14016,12.19,74680.5,-5.13,-34.25,-34.59,0,*5E
1487221258.77,14017,12.19,74684.8,-5.13,-34.35,-34.53,0,*54
1487221260.01,14018,12.19,74680.8,-5.13,-34.41,-34.65,0,*5D
1487221261.22,14019,12.19,74680.5,-5.17,-34.47,-34.59,0,*51
1487221262.51,14020,12.19,74682.8,-5.11,-34.35,-34.65,0,*57
1487221263.79,14021,12.19,74684.5,-5.11,-34.53,-34.83,0,*5E
1487221265.07,14022,12.19,74682.0,-5.11,-34.53,-34.83,0,*5D
1487221266.3,14023,12.19,74680.0,-5.13,-34.35,-34.59,0,*59
1487221267.53,14024,12.19,74682.8,-5.13,-34.07,-34.35,0,*55
1487221268.8,14025,12.19,74682.8,-5.13,-34.35,-34.65,0,*50
1487221270.04,14026,12.19,74686.5,-5.17,-34.65,-35.01,0,*51
1487221271.33,14027,12.19,74682.8,-5.11,-34.65,-34.95,0,*5A
1487221272.53,14028,12.19,74682.3,-5.13,-34.41,-34.59,0,*51
1487221273.74,14029,12.19,74680.5,-5.13,-34.41,-34.59,0,*50
1487221274.98,14030,12.19,74682.5,-5.13,-34.41,-34.65,0,*57
1487221276.19,14031,12.19,74682.3,-5.13,-34.77,-35.01,0,*50
1487221277.42,14032,12.19,74682.5,-5.13,-34.41,-34.83,0,*5D
1487221278.69,14033,12.19,74684.8,-5.13,-34.53,-34.65,0,*57
1487221279.92,14034,12.19,74680.3,-5.13,-34.41,-34.53,0,*56
1487221281.15,14035,12.19,74686.3,-5.13,-34.35,-34.59,0,*5E
1487221282.39,14036,12.19,74680.5,-5.17,-34.47,-34.83,0,*5B
1487221283.63,14037,12.19,74682.5,-5.17,-34.71,-35.07,0,*52
1487221284.84,14038,12.19,74680.5,-5.13,-34.47,-34.71,0,*5C
1487221286.07,14039,12.19,74680.8,-5.13,-34.19,-34.41,0,*55
1487221287.28,14040,12.19,74680.5,-5.13,-34.41,-34.77,0,*53
1487221288.49,14041,12.13,74676.5,-5.13,-34.77,-35.01,0,*57
1487221289.73,14042,12.19,74680.8,-5.13,-34.83,-35.01,0,*5F
1487221290.99,14043,12.19,74682.5,-5.17,-34.83,-35.07,0,*5C
1487221292.26,14044,12.19,74682.0,-5.13,-34.65,-34.95,0,*5D
1487221293.52,14045,12.19,74682.5,-5.17,-34.83,-35.07,0,*5A
1487221294.78,14046,12.19,74682.8,-5.17,-34.65,-35.07,0,*51
1487221296.0,14047,12.19,74682.3,-5.17,-34.47,-34.71,0,*50
1487221297.24,14048,12.19,74682.0,-5.17,-34.65,-35.01,0,*59
1487221298.45,14049,12.19,74676.8,-5.17,-34.59,-34.89,0,*56
1487221299.69,14050,12.19,74680.0,-5.17,-34.47,-34.65,0,*53
1487221300.94,14051,12.19,74686.5,-5.19,-34.47,-34.77,0,*5F
1487221302.2,14052,12.19,74680.5,-5.19,-34.19,-34.47,0,*54
1487221303.42,14053,12.19,74682.8,-5.17,-34.71,-35.01,0,*56
1487221304.64,14054,12.19,74680.5,-5.17,-34.71,-35.01,0,*51
1487221305.85,14055,12.19,74682.3,-5.17,-34.47,-34.71,0,*53
1487221307.09,14056,12.19,74680.3,-5.17,-34.31,-34.47,0,*54
1487221308.38,14057,12.19,74680.5,-5.19,-34.65,-34.95,0,*55
1487221309.59,14058,12.19,74682.5,-5.21,-34.89,-35.13,0,*5C
1487221310.86,14059,12.19,74680.5,-5.19,-34.71,-34.95,0,*5E
1487221312.07,14060,12.13,74678.5,-5.17,-34.47,-34.71,0,*55
1487221313.32,14061,12.19,74682.0,-5.17,-34.47,-34.65,0,*51
1487221314.55,14062,12.19,74682.5,-5.17,-34.59,-34.83,0,*55
1487221315.82,14063,12.19,74682.8,-5.19,-34.53,-34.77,0,*5B
1487221317.08,14064,12.19,74680.5,-5.17,-34.31,-34.65,0,*55
1487221318.29,14065,12.19,74682.3,-5.17,-34.25,-34.47,0,*51
1487221319.53,14066,12.19,74680.3,-5.19,-34.47,-34.71,0,*5D
1487221320.79,14067,12.19,74682.8,-5.19,-34.71,-35.07,0,*59
1487221322.04,14068,12.19,74682.0,-5.17,-34.47,-34.65,0,*58
1487221323.27,14069,12.19,74684.8,-5.17,-34.41,-34.83,0,*57
1487221324.5,14070,12.19,74678.8,-5.17,-34.41,-34.65,0,*57
1487221325.74,14071,12.19,74684.8,-5.17,-34.41,-34.65,0,*56
1487221326.97,14072,12.19,74682.8,-5.17,-34.31,-34.59,0,*5D
1487221328.17,14073,12.19,74684.0,-5.17,-34.13,-34.41,0,*55
1487221329.38,14074,12.19,74680.0,-5.17,-34.25,-34.47,0,*51
1487221330.62,14075,12.19,74680.8,-5.17,-34.41,-34.65,0,*52
1487221331.88,14076,12.19,74680.8,-5.17,-34.65,-34.83,0,*5F
1487221333.12,14077,12.19,74686.0,-5.17,-34.31,-34.47,0,*57
1487221334.35,14078,12.19,74682.0,-5.17,-34.65,-34.89,0,*5B
1487221335.56,14079,12.19,74678.3,-5.17,-34.47,-34.89,0,*5A
1487221336.82,14080,12.19,74682.8,-5.19,-34.53,-34.89,0,*57
1487221338.09,14081,12.19,74682.3,-5.19,-34.77,-35.07,0,*57
1487221339.32,14082,12.19,74680.3,-5.21,-34.89,-35.07,0,*5E
1487221340.58,14083,12.19,74680.0,-5.19,-34.65,-34.89,0,*51
1487221341.85,14084,12.19,74680.8,-5.21,-34.53,-34.65,0,*5A
1487221343.09,14085,12.19,74684.5,-5.21,-34.77,-34.95,0,*52
1487221344.36,14086,12.19,74680.5,-5.19,-34.71,-35.07,0,*56
1487221345.62,14087,12.19,74682.3,-5.19,-34.65,-34.89,0,*55
1487221346.84,14088,12.19,74682.8,-5.21,-34.47,-34.77,0,*50
1487221348.11,14089,12.19,74678.8,-5.19,-34.71,-34.95,0,*53
1487221349.35,14090,12.19,74680.5,-5.21,-34.77,-35.07,0,*5C
1487221350.61,14091,12.19,74680.0,-5.19,-34.71,-35.07,0,*50
1487221351.88,14092,12.19,74686.0,-5.21,-34.65,-34.95,0,*57
1487221353.13,14093,12.19,74682.8,-5.21,-34.71,-34.95,0,*53
1487221354.36,14094,12.19,74680.8,-5.21,-34.89,-35.07,0,*59
1487221355.6,14095,12.19,74680.5,-5.21,-34.65,-34.89,0,*5D
1487221356.87,14096,12.19,74682.0,-5.21,-34.53,-34.65,0,*59
1487221358.11,14097,12.19,74682.5,-5.21,-34.31,-34.47,0,*5C
1487221359.35,14098,12.19,74682.0,-5.21,-34.53,-34.89,0,*55
1487221360.58,14099,12.19,74682.8,-5.21,-34.53,-34.89,0,*54
1487221361.83,14100,12.19,74682.3,-5.21,-34.47,-34.65,0,*52
1487221363.07,14101,12.19,74680.0,-5.21,-34.53,-34.71,0,*53
1487221364.31,14102,12.19,74682.5,-5.21,-34.71,-35.07,0,*50
1487221365.53,14103,12.19,74682.3,-5.21,-34.77,-35.13,0,*52
1487221366.77,14104,12.19,74682.0,-5.21,-34.65,-34.89,0,*54
1487221367.99,14105,12.19,74680.8,-5.21,-34.47,-34.89,0,*55
1487221369.23,14106,12.19,74682.3,-5.21,-34.53,-34.71,0,*54
1487221370.46,14107,12.19,74680.8,-5.21,-34.13,-34.31,0,*55
1487221371.73,14108,12.19,74680.3,-5.21,-34.65,-34.95,0,*55
1487221372.97,14109,12.19,74682.0,-5.21,-34.77,-35.07,0,*5D
1487221374.21,14110,12.19,74680.0,-5.21,-34.77,-35.07,0,*55
1487221375.43,14111,12.19,74682.5,-5.25,-34.77,-35.01,0,*56
1487221376.67,14112,12.19,74680.0,-5.25,-34.59,-34.95,0,*55
1487221377.91,14113,12.19,74682.3,-5.25,-34.53,-34.77,0,*52
1487221379.17,14114,12.19,74680.3,-5.27,-34.35,-34.71,0,*51
1487221380.44,14115,12.19,74682.0,-5.21,-34.35,-34.65,0,*53
1487221381.68,14116,12.19,74680.3,-5.25,-34.59,-34.95,0,*51
1487221382.89,14117,12.19,74676.8,-5.25,-34.25,-34.41,0,*52
1487221384.12,14118,12.19,74678.8,-5.25,-34.35,-34.59,0,*55
1487221385.36,14119,12.19,74682.5,-5.21,-34.35,-34.47,0,*5F
1487221386.6,14120,12.19,74680.3,-5.21,-34.13,-34.31,0,*50
1487221387.81,14121,12.19,74682.0,-5.21,-34.47,-34.71,0,*54
1487221389.05,14122,12.19,74680.8,-5.21,-34.53,-34.77,0,*54
1487221390.29,14123,12.19,74684.8,-5.25,-34.35,-34.59,0,*5D
1487221391.52,14124,12.19,74680.8,-5.25,-34.19,-34.41,0,*5D
1487221392.78,14125,12.13,74678.5,-5.25,-34.19,-34.35,0,*5F
1487221394.01,14126,12.19,74682.0,-5.25,-34.19,-34.41,0,*5F
1487221395.27,14127,12.19,74682.0,-5.21,-34.35,-34.53,0,*57
1487221396.51,14128,12.19,74678.8,-5.19,-34.47,-34.77,0,*50
1487221397.77,14129,12.19,74682.8,-5.21,-34.19,-34.35,0,*57
1487221399.0,14130,12.19,74680.3,-5.21,-34.13,-34.31,0,*51
1487221400.23,14131,12.19,74680.5,-5.21,-34.13,-34.35,0,*54
1487221401.49,14132,12.19,74682.0,-5.19,-34.13,-34.31,0,*58
1487221402.77,14133,12.19,74680.0,-5.19,-34.01,-34.31,0,*5A
1487221404.01,14134,12.19,74680.8,-5.21,-34.35,-34.47,0,*50
1487221405.23,14135,12.19,74680.8,-5.21,-34.47,-34.71,0,*51
1487221406.46,14136,12.19,74682.3,-5.21,-34.53,-34.89,0,*50
1487221407.71,14137,12.19,74682.0,-5.21,-34.71,-34.95,0,*5C
1487221408.97,14138,12.19,74682.5,-5.19,-34.19,-34.47,0,*59
1487221410.22,14139,12.19,74682.5,-5.21,-34.47,-34.65,0,*58
1487221411.46,14140,12.19,74682.5,-5.19,-34.47,-34.77,0,*5E
1487221412.7,14141,12.19,74680.5,-5.21,-34.71,-35.07,0,*57
1487221413.94,14142,12.13,74680.5,-5.21,-34.71,-35.07,0,*54
1487221415.19,14143,12.19,74682.5,-5.21,-34.53,-34.77,0,*53
1487221416.43,14144,12.19,74680.5,-5.21,-34.65,-34.77,0,*51
1487221417.7,14145,12.19,74682.5,-5.21,-34.65,-35.07,0,*56
1487221418.94,14146,12.19,74684.3,-5.21,-34.71,-34.95,0,*5A
1487221420.16,14147,12.19,74682.3,-5.25,-34.77,-35.13,0,*56
1487221421.37,14148,12.19,74682.3,-5.25,-34.41,-34.59,0,*53
1487221422.6,14149,12.19,74684.3,-5.25,-34.07,-34.19,0,*54
1487221423.84,14150,12.19,74680.8,-5.25,-34.53,-34.71,0,*53
1487221425.05,14151,12.19,74682.3,-5.25,-34.41,-34.59,0,*5B
1487221426.26,14152,12.19,74682.3,-5.25,-34.41,-34.59,0,*58
1487221427.49,14153,12.19,74684.0,-5.25,-34.07,-34.35,0,*51
1487221428.7,14154,12.19,74680.3,-5.25,-34.41,-34.71,0,*54
1487221429.97,14155,12.13,74680.5,-5.21,-34.35,-34.65,0,*57
1487221431.22,14156,12.19,74680.0,-5.21,-34.47,-34.65,0,*51
1487221432.48,14157,12.19,74682.3,-5.21,-34.35,-34.65,0,*55
1487221433.72,14158,12.19,74682.3,-5.21,-34.19,-34.47,0,*54
1487221434.98,14159,12.19,74682.3,-5.21,-34.19,-34.31,0,*54
1487221436.23,14160,12.19,74684.0,-5.21,-34.47,-34.65,0,*54
1487221437.49,14161,12.13,74680.5,-5.21,-34.35,-34.65,0,*50
1487221438.74,14162,12.19,74682.0,-5.21,-34.47,-34.65,0,*56
1487221440.03,14163,12.19,74682.5,-5.19,-34.35,-34.65,0,*59
1487221441.29,14164,12.19,74682.3,-5.21,-34.31,-34.53,0,*54
1487221442.56,14165,12.19,74682.3,-5.21,-34.19,-34.53,0,*5F
1487221443.82,14166,12.19,74680.5,-5.21,-34.31,-34.53,0,*56
1487221445.04,14167,12.19,74682.3,-5.21,-34.47,-34.71,0,*56
1487221446.29,14168,12.19,74682.5,-5.21,-34.47,-34.65,0,*5C
1487221447.54,14169,12.19,74682.0,-5.21,-34.19,-34.31,0,*57
1487221448.79,14170,12.19,74682.5,-5.21,-34.47,-34.65,0,*55
1487221450.03,14171,12.19,74684.3,-5.21,-34.53,-34.77,0,*52
1487221451.25,14172,12.19,74682.0,-5.21,-34.13,-34.47,0,*56
1487221452.49,14173,12.19,74682.8,-5.19,-34.47,-34.71,0,*58
1487221453.75,14174,12.19,74686.3,-5.19,-34.53,-34.89,0,*5D
1487221454.98,14175,12.19,74680.0,-5.21,-34.13,-34.31,0,*50
1487221456.21,14176,12.19,74686.0,-5.19,-33.95,-34.13,0,*51
1487221457.47,14177,12.19,74686.8,-5.21,-34.01,-34.19,0,*5B
1487221458.7,14178,12.19,74682.5,-5.21,-34.13,-34.35,0,*59
1487221459.96,14179,12.19,74684.8,-5.21,-34.19,-34.35,0,*52
1487221461.19,14180,12.19,74682.3,-5.21,-34.01,-34.13,0,*59
1487221462.42,14181,12.19,74680.8,-5.21,-33.95,-34.19,0,*58
1487221463.68,14182,12.19,74682.8,-5.21,-34.01,-34.35,0,*5F
1487221464.94,14183,12.19,74682.3,-5.21,-34.01,-34.31,0,*5A
1487221466.19,14184,12.19,74680.8,-5.19,-34.13,-34.31,0,*55
1487221467.45,14185,12.19,74680.0,-5.21,-34.19,-34.35,0,*51
1487221468.69,14186,12.19,74680.0,-5.19,-34.47,-34.71,0,*52
1487221469.92,14187,12.19,74680.0,-5.21,-34.13,-34.35,0,*59
1487221471.19,14188,12.19,74680.8,-5.19,-34.47,-34.53,0,*5C
1487221472.42,14189,12.19,74684.5,-5.21,-34.53,-34.89,0,*54
1487221473.72,14190,12.19,74682.0,-5.19,-34.65,-34.95,0,*5F
1487221474.96,14191,12.19,74680.0,-5.21,-34.53,-34.77,0,*5C
1487221476.22,14192,12.19,74680.0,-5.19,-34.35,-34.47,0,*57
1487221477.43,14193,12.19,74682.0,-5.21,-33.83,-34.13,0,*56
1487221478.67,14194,12.19,74684.3,-5.21,-34.31,-34.47,0,*5E
1487221479.89,14195,12.19,74682.5,-5.21,-34.47,-34.77,0,*5D
1487221481.11,14196,12.19,74684.3,-5.21,-34.47,-34.77,0,*5E
1487221482.35,14197,12.19,74680.0,-5.21,-34.53,-34.77,0,*5A
1487221483.62,14198,12.19,74682.0,-5.21,-34.35,-34.65,0,*56
1487221484.86,14199,12.19,74682.3,-5.21,-34.53,-34.89,0,*55
1487221486.12,14200,12.19,74680.3,-5.21,-34.35,-34.65,0,*54
1487221487.39,14201,12.19,74680.8,-5.19,-34.19,-34.47,0,*50
1487221488.62,14202,12.19,74682.0,-5.21,-34.19,-34.47,0,*58
1487221489.86,14203,12.19,74680.8,-5.21,-34.19,-34.47,0,*59
1487221491.12,14204,12.19,74680.0,-5.21,-34.01,-34.31,0,*56
1487221492.4,14205,12.19,74680.3,-5.19,-34.01,-34.31,0,*5C
1487221493.68,14206,12.19,74684.5,-5.19,-34.01,-34.31,0,*5F
1487221494.89,14207,12.19,74680.3,-5.21,-33.95,-34.13,0,*5F
1487221496.12,14208,12.19,74680.3,-5.19,-33.83,-34.13,0,*5C
1487221497.36,14209,12.19,74680.3,-5.17,-34.07,-34.31,0,*58
1487221498.65,14210,12.19,74682.5,-5.19,-34.53,-34.95,0,*51
1487221499.93,14211,12.19,74682.8,-5.19,-34.35,-34.53,0,*5A
1487221501.19,14212,12.19,74678.8,-5.19,-34.13,-34.31,0,*59
1487221502.47,14213,12.19,74680.0,-5.19,-34.01,-34.35,0,*5F
1487221503.73,14214,12.19,74680.0,-5.19,-34.13,-34.31,0,*5F
1487221504.98,14215,12.19,74680.5,-5.19,-34.13,-34.35,0,*5A
1487221506.22,14216,12.19,74680.8,-5.19,-34.13,-34.47,0,*5C
1487221507.5,14217,12.19,74682.0,-5.19,-34.31,-34.53,0,*58
1487221508.78,14218,12.19,74682.8,-5.19,-34.19,-34.35,0,*5D
1487221510.04,14219,12.19,74682.3,-5.19,-34.13,-34.35,0,*56
1487221511.31,14220,12.19,74680.0,-5.19,-34.47,-34.65,0,*58
1487221512.57,14221,12.19,74680.3,-5.19,-34.19,-34.47,0,*52
1487221513.83,14222,12.19,74682.3,-5.19,-34.13,-34.31,0,*5A
1487221515.11,14223,12.19,74680.3,-5.19,-34.01,-34.19,0,*52
1487221516.36,14224,12.19,74682.0,-5.19,-34.13,-34.31,0,*5C
1487221517.56,14225,12.19,74684.0,-5.17,-34.07,-34.25,0,*53
1487221518.8,14226,12.19,74682.0,-5.19,-34.47,-34.89,0,*5C
1487221520.07,14227,12.19,74682.3,-5.19,-34.19,-34.47,0,*54
1487221521.32,14228,12.19,74684.3,-5.19,-34.13,-34.31,0,*50
1487221522.55,14229,12.19,74680.5,-5.19,-33.95,-34.13,0,*58
1487221523.78,14230,12.19,74682.5,-5.17,-33.89,-34.13,0,*53
1487221524.98,14231,12.13,74676.3,-5.17,-33.95,-34.07,0,*5A
1487221526.25,14232,12.19,74682.3,-5.13,-33.73,-34.01,0,*53
1487221527.48,14233,12.19,74680.5,-5.17,-33.73,-33.95,0,*5C
1487221528.75,14234,12.19,74680.0,-5.17,-33.73,-33.89,0,*56
1487221529.95,14235,12.19,74680.0,-5.13,-33.55,-33.83,0,*5D
1487221531.18,14236,12.19,74680.8,-5.13,-33.67,-33.89,0,*55
1487221532.39,14237,12.19,74680.5,-5.13,-33.67,-33.83,0,*5E
1487221533.62,14238,12.19,74682.5,-5.13,-33.55,-33.73,0,*5F
1487221534.82,14239,12.19,74686.3,-5.13,-33.67,-33.83,0,*50
1487221536.03,14240,12.19,74686.0,-5.09,-33.55,-33.83,0,*54
1487221537.32,14241,12.19,74680.8,-5.11,-33.73,-34.01,0,*55
1487221538.55,14242,12.19,74686.0,-5.09,-34.01,-34.13,0,*5E
1487221539.8,14243,12.19,74684.5,-5.11,-34.35,-34.59,0,*5F
1487221541.03,14244,12.19,74684.8,-5.11,-34.25,-34.41,0,*50
1487221542.23,14245,12.19,74682.8,-5.09,-33.95,-34.13,0,*53
1487221543.46,14246,12.19,74680.0,-5.11,-33.55,-33.83,0,*5B
1487221544.68,14247,12.19,74684.0,-5.09,-33.61,-33.83,0,*54
1487221545.89,14248,12.19,74680.8,-5.09,-33.67,-33.83,0,*5D
1487221547.14,14249,12.19,74684.8,-5.09,-33.61,-33.77,0,*51
1487221548.39,14250,12.13,74680.3,-5.09,-33.61,-33.77,0,*59
1487221549.62,14251,12.19,74682.8,-5.09,-33.77,-33.95,0,*53
1487221550.83,14252,12.19,74680.0,-5.09,-33.95,-34.13,0,*55
1487221552.06,14253,12.19,74682.8,-5.09,-34.19,-34.59,0,*59
1487221553.27,14254,12.13,74682.0,-5.09,-34.47,-34.77,0,*59
1487221554.52,14255,12.19,74684.0,-5.11,-34.25,-34.35,0,*53
1487221555.76,14256,12.19,74680.3,-5.09,-34.31,-34.47,0,*59
1487221556.99,14257,12.19,74684.5,-5.09,-34.35,-34.71,0,*59
1487221558.24,14258,12.19,74682.8,-5.11,-33.89,-34.07,0,*5E
1487221559.47,14259,12.19,74684.0,-5.09,-33.61,-33.83,0,*5B
1487221560.68,14260,12.19,74682.3,-5.09,-33.67,-34.13,0,*59
1487221561.95,14261,12.13,74682.5,-5.11,-34.35,-34.83,0,*58
1487221563.21,14262,12.19,74680.3,-5.09,-34.19,-34.35,0,*51
1487221564.44,14263,12.19,74680.3,-5.11,-34.25,-34.47,0,*53
1487221565.65,14264,12.19,74682.8,-5.09,-34.47,-34.71,0,*5C
1487221566.93,14265,12.19,74684.8,-5.11,-34.53,-34.83,0,*5C
1487221568.17,14266,12.19,74682.5,-5.09,-34.41,-34.65,0,*5D
1487221569.46,14267,12.19,74682.8,-5.11,-34.53,-34.95,0,*59
1487221570.73,14268,12.19,74680.3,-5.11,-34.19,-34.35,0,*52
1487221571.96,14269,12.13,74680.3,-5.11,-34.07,-34.25,0,*5D
1487221573.22,14270,12.19,74684.3,-5.11,-34.53,-34.77,0,*53
1487221574.48,14271,12.19,74682.5,-5.11,-34.41,-34.65,0,*52
1487221575.71,14272,12.19,74682.8,-5.09,-34.35,-34.71,0,*5E
1487221577.0,14273,12.19,74684.0,-5.11,-34.35,-34.53,0,*56
1487221578.25,14274,12.19,74684.8,-5.11,-34.07,-34.35,0,*50
1487221579.5,14275,12.19,74684.3,-5.11,-34.19,-34.41,0,*5D
1487221580.79,14276,12.19,74682.0,-5.11,-34.53,-34.95,0,*59
1487221582.08,14277,12.19,74682.8,-5.11,-34.65,-34.95,0,*5D
1487221583.33,14278,12.19,74684.8,-5.11,-34.25,-34.53,0,*5C
1487221584.61,14279,12.19,74680.8,-5.11,-34.19,-34.35,0,*52
1487221585.86,14280,12.19,74682.5,-5.09,-34.31,-34.35,0,*57
1487221587.12,14281,12.19,74682.0,-5.09,-34.31,-34.53,0,*56
1487221588.36,14282,12.19,74680.3,-5.09,-34.35,-34.71,0,*51
1487221589.64,14283,12.19,74682.3,-5.11,-34.65,-34.95,0,*56
1487221590.88,14284,12.19,74682.8,-5.13,-34.53,-34.77,0,*5A
1487221592.14,14285,12.19,74680.5,-5.11,-34.25,-34.53,0,*5E
1487221593.39,14286,12.19,74686.8,-5.11,-34.25,-34.53,0,*5D
1487221594.64,14287,12.19,74680.8,-5.11,-34.19,-34.41,0,*50
1487221595.9,14288,12.19,74680.8,-5.11,-34.07,-34.35,0,*53
1487221597.13,14289,12.19,74682.8,-5.13,-34.35,-34.59,0,*5B
1487221598.42,14290,12.19,74680.5,-5.11,-34.53,-34.95,0,*51
1487221599.65,14291,12.19,74680.3,-5.11,-34.41,-34.77,0,*5F
1487221600.85,14292,12.19,74684.0,-5.13,-34.25,-34.41,0,*59
1487221602.05,14293,12.19,74680.0,-5.13,-34.07,-34.25,0,*5A
1487221603.31,14294,12.19,74682.8,-5.13,-34.53,-34.83,0,*50
1487221604.57,14295,12.19,74680.0,-5.13,-34.53,-34.83,0,*51
1487221605.81,14296,12.19,74684.3,-5.13,-34.59,-34.95,0,*5F
1487221607.05,14297,12.19,74682.8,-5.13,-34.41,-34.65,0,*58
1487221608.31,14298,12.19,74682.5,-5.13,-34.65,-34.95,0,*5E
1487221609.57,14299,12.19,74682.0,-5.13,-34.65,-34.83,0,*58
1487221610.82,14300,12.19,74682.3,-5.17,-34.47,-34.65,0,*55
1487221612.08,14301,12.19,74684.0,-5.11,-34.41,-34.65,0,*54
1487221613.32,14302,12.19,74682.3,-5.13,-34.59,-34.95,0,*53
1487221614.58,14303,12.19,74684.8,-5.13,-34.65,-34.95,0,*5D
1487221615.8,14304,12.19,74682.8,-5.17,-34.47,-34.71,0,*54
1487221617.04,14305,12.19,74686.8,-5.17,-34.47,-34.65,0,*50
1487221618.25,14306,12.19,74680.3,-5.17,-34.41,-34.47,0,*55
1487221619.49,14307,12.19,74684.3,-5.17,-34.35,-34.71,0,*52
1487221620.69,14308,12.19,74682.5,-5.17,-34.41,-34.59,0,*54
1487221621.9,14309,12.13,74682.0,-5.17,-34.41,-34.71,0,*5F
1487221623.1,14310,12.13,74680.0,-5.17,-34.41,-34.59,0,*5D
1487221624.31,14311,12.19,74680.3,-5.17,-34.13,-34.25,0,*50
1487221625.5,14312,12.19,74680.8,-5.17,-34.25,-34.41,0,*54
1487221626.74,14313,12.13,74680.3,-5.17,-34.31,-34.59,0,*59
1487221627.97,14314,12.19,74682.5,-5.17,-34.31,-34.47,0,*51
1487221629.21,14315,12.19,74680.8,-5.17,-34.47,-34.83,0,*59
1487221630.45,14316,12.19,74684.0,-5.17,-34.47,-34.83,0,*5A
1487221631.68,14317,12.19,74684.8,-5.17,-34.41,-34.65,0,*55
1487221632.89,14318,12.19,74682.0,-5.17,-34.13,-34.41,0,*5B
1487221634.11,14319,12.19,74684.5,-5.17,-34.25,-34.31,0,*58
1487221635.31,14320,12.19,74680.8,-5.17,-34.07,-34.25,0,*57
1487221636.58,14321,12.19,74682.0,-5.17,-34.31,-34.65,0,*57
1487221637.81,14322,12.19,74682.5,-5.17,-34.31,-34.41,0,*52
1487221639.03,14323,12.19,74682.0,-5.13,-34.35,-34.41,0,*53
1487221640.26,14324,12.19,74684.8,-5.13,-34.25,-34.53,0,*56
1487221641.5,14325,12.19,74680.3,-5.17,-34.59,-34.83,0,*55
1487221642.73,14326,12.19,74682.5,-5.17,-34.65,-34.89,0,*53
1487221643.98,14327,12.19,74682.8,-5.17,-34.47,-34.65,0,*50
1487221645.18,14328,12.19,74680.5,-5.17,-34.07,-34.25,0,*5F
1487221646.41,14329,12.19,74682.8,-5.17,-34.07,-34.31,0,*5B
1487221647.64,14330,12.19,74680.5,-5.13,-34.35,-34.41,0,*51
1487221648.88,14331,12.19,74680.8,-5.17,-34.59,-34.83,0,*50
1487221650.11,14332,12.19,74682.5,-5.17,-34.31,-34.47,0,*55
1487221651.32,14333,12.19,74686.0,-5.17,-34.25,-34.47,0,*51
1487221652.58,14334,12.19,74682.5,-5.17,-34.31,-34.65,0,*53
1487221653.79,14335,12.19,74680.5,-5.17,-34.25,-34.47,0,*57
1487221655.02,14336,12.19,74680.5,-5.17,-34.31,-34.41,0,*57
1487221656.22,14337,12.19,74682.3,-5.17,-33.95,-34.25,0,*5D
1487221657.45,14338,12.19,74682.8,-5.17,-34.31,-34.59,0,*50
1487221658.66,14339,12.13,74680.8,-5.17,-34.71,-34.89,0,*58
1487221659.9,14340,12.19,74682.0,-5.17,-34.65,-34.89,0,*53
1487221661.11,14341,12.19,74684.5,-5.17,-34.47,-34.71,0,*55
1487221662.35,14342,12.19,74682.0,-5.17,-34.31,-34.59,0,*5D
1487221663.55,14343,12.19,74682.3,-5.17,-34.41,-34.71,0,*51
1487221664.77,14344,12.19,74682.5,-5.17,-34.47,-35.01,0,*56
1487221666.06,14345,12.19,74686.5,-5.19,-34.35,-34.53,0,*5A
1487221667.28,14346,12.19,74682.8,-5.21,-34.47,-34.71,0,*57
1487221668.54,14347,12.19,74680.3,-5.19,-34.31,-34.47,0,*59
1487221669.82,14348,12.19,74680.3,-5.19,-34.19,-34.35,0,*59
1487221671.1,14349,12.19,74680.3,-5.19,-34.31,-34.35,0,*52
1487221672.37,14350,12.19,74680.0,-5.19,-34.19,-34.35,0,*50
1487221673.65,14351,12.19,74680.5,-5.19,-34.19,-34.35,0,*51
1487221674.89,14352,12.19,74680.5,-5.21,-34.13,-34.31,0,*57
1487221676.09,14353,12.19,74680.8,-5.17,-34.13,-34.41,0,*54
1487221677.3,14354,12.19,74686.0,-5.17,-34.25,-34.47,0,*50
1487221678.5,14355,12.19,74682.5,-5.17,-34.13,-34.41,0,*52
1487221679.7,14356,12.19,74684.0,-5.17,-34.13,-34.41,0,*51
1487221680.91,14357,12.19,74682.3,-5.17,-34.25,-34.47,0,*53
1487221682.14,14358,12.19,74682.0,-5.17,-34.13,-34.31,0,*58
1487221683.34,14359,12.13,74678.3,-5.17,-34.07,-34.25,0,*59
1487221684.54,14360,12.19,74682.3,-5.17,-34.25,-34.41,0,*51
1487221685.75,14361,12.19,74680.5,-5.17,-34.13,-34.41,0,*55
1487221686.97,14362,12.19,74680.3,-5.17,-34.31,-34.41,0,*56
1487221688.17,14363,12.19,74682.0,-5.17,-33.95,-34.25,0,*5C
1487221689.37,14364,12.19,74686.3,-5.17,-34.25,-34.25,0,*57
1487221690.62,14365,12.19,74680.5,-5.13,-34.19,-34.35,0,*5C
1487221691.83,14366,12.19,74682.3,-5.17,-34.41,-34.59,0,*5C
1487221693.06,14367,12.19,74680.3,-5.13,-34.35,-34.59,0,*5A
1487221694.27,14368,12.13,74680.5,-5.17,-34.41,-34.47,0,*5D
1487221695.51,14369,12.19,74680.8,-5.17,-34.41,-34.65,0,*5C